[[{"header":{"parameterUnit":"m.s-1","parameterCategory":1,"la1":30.2991,"la2":30.254,"lo1":-89.0895,"lo2":-89.0444,"dy":0.0017,"dx":0.0017,"nx":28,"ny":28,"refTime":"2023-04-25T21:00:00:Z","depth":0,"parameterNumber":2,"parameterNumberName":"U-component_of_WINDS"},"data":[0,0,0,0,0,0,0,0,0,0,0,0,0,0,0,0,0,0,0,0,0,0,0,0,0,0,0,0,0,0,0,0,0,0,0,0,0,0,0,0,0,0,0,0,0,0,0,0,0,0,0,0,0,0,0,0,0,0,-2.311,-2.3111,0,-2.3184,-2.3185,-2.3185,-2.3107,-2.3104,-2.3101,-2.3098,-2.3178,-2.3183,-2.3188,0,0,0,0,0,0,0,0,0,0,0,0,0,-2.2905,-2.2909,-2.311,-2.3111,-2.3112,-2.3184,-2.3185,-2.3186,-2.3108,-2.3104,-2.31,-2.3097,-2.3177,-2.3182,-2.3188,0,0,0,0,0,0,0,0,0,0,0,0,0,-2.2988,-2.291,-2.311,-2.3082,-2.308,-2.3183,-2.3185,-2.3186,-2.3109,-2.3104,-2.31,-2.3095,-2.3175,-2.3182,-2.3189,-2.3326,0,0,-2.3212,-2.3215,0,0,0,0,0,0,0,0,-2.2983,-2.2996,-2.3085,-2.3084,-2.3082,-2.3132,-2.3141,-2.3233,-2.311,-2.3098,-2.3098,-2.3093,-2.3167,-2.3174,-2.3198,-2.3329,-2.3333,-2.3212,-2.3217,-2.322,-2.3222,0,0,0,0,0,0,0,-2.2978,-2.2992,-2.3139,-2.3086,-2.3085,-2.3066,-2.3073,-2.3158,-2.3157,-2.3099,-2.3093,-2.3103,-2.3165,-2.3191,-2.32,-2.3334,-2.3212,-2.3219,-2.3223,-2.3226,-2.3579,-2.3584,0,0,0,0,0,0,-2.2975,-2.2988,-2.3137,-2.3142,-2.302,-2.3074,-2.3081,-2.312,-2.3156,-2.3157,-2.3106,-2.3099,-2.3181,-2.3191,-2.3202,-2.3364,-2.322,-2.3227,-2.3231,-2.3575,-2.358,-2.3586,0,0,0,0,0,0,-2.2971,-2.2989,-2.3134,-2.3063,-2.308,-2.3082,-2.3127,-2.3124,-2.315,-2.3162,-2.3161,-2.3133,-2.3178,-2.3192,-2.3295,-2.3366,-2.323,-2.3237,-2.3569,-2.3576,-2.3583,-2.3689,0,0,0,0,0,0,-2.2965,-2.2988,-2.3039,-2.3065,-2.3084,-2.3225,-2.3131,-2.3129,-2.3163,-2.3154,-2.3187,-2.3188,-2.3175,-2.3284,-2.3302,-2.3373,-2.3243,-2.3562,-2.3572,-2.3581,-2.3679,-2.3699,-2.3716,0,0,0,0,0,-2.2958,-2.3067,-2.3042,-2.3061,-2.3149,-2.323,-2.3241,-2.3223,-2.3169,-2.3221,-2.3228,-2.3187,-2.3354,-2.3296,-2.3315,-2.339,-2.3558,-2.3569,-2.358,-2.3671,-2.3695,-2.3716,0,0,0,0,0,0,-2.3053,-2.307,-2.3043,-2.3164,-2.3195,-2.3216,-2.3282,-2.3249,-2.3298,-2.3287,-2.3264,-2.3272,-2.3381,-2.3395,-2.3329,-2.3523,-2.3448,-2.3463,-2.351,-2.3533,-2.3551,-2.3546,-2.3249,0,0,0,0,0,-2.3087,-2.315,-2.3163,-2.3268,-2.3285,-2.3281,-2.3315,-2.3298,-2.3331,-2.3344,-2.3359,-2.3393,-2.3453,-2.3494,-2.355,-2.368,-2.3686,-2.3741,-2.3759,-2.3774,-2.3789,-2.3858,-2.3883,-2.3622,-2.3622,-2.3622,0,0,-2.316,-2.3177,-2.3219,-2.3287,-2.331,-2.3377,-2.3293,-2.3367,-2.3417,-2.3356,-2.3454,-2.3466,-2.3502,-2.362,-2.3672,-2.3635,-2.3861,-2.3788,-2.38,-2.3807,-2.3872,-2.3897,-2.3919,-2.363,-2.3628,-2.3627,0,0,-2.3327,-2.3346,-2.3436,-2.3459,-2.3494,-2.3489,-2.3511,-2.3536,-2.3541,-2.3638,-2.3594,-2.3652,-2.3757,-2.3784,-2.3812,-2.3986,-2.3951,-2.4005,-2.4103,-2.4171,-2.4191,-2.4209,-2.4272,-2.4295,-2.4019,-2.4019,-2.402,0,-2.3414,-2.3511,-2.3486,-2.3564,-2.3595,-2.354,-2.3631,-2.3655,-2.3707,-2.3731,-2.3687,-2.3816,-2.3837,-2.3959,-2.4002,-2.4026,-2.405,-2.4003,-2.419,-2.4208,-2.4224,-2.4284,-2.4308,-2.4026,-2.4025,-2.4024,-2.4024,0,-2.3616,-2.3685,-2.3753,-2.3802,-2.3841,-2.3925,-2.3913,-2.3955,-2.3934,-2.3934,-2.4034,-2.4056,-2.4115,-2.4143,-2.4124,-2.4263,-2.4238,-2.4193,-2.4117,-2.4256,-2.4312,-2.4334,-2.4035,-2.4033,-2.4031,-2.4029,0,0,-2.3849,-2.388,-2.3906,-2.3927,-2.3959,-2.4012,-2.4093,-2.4149,-2.4186,-2.4222,-2.429,-2.4378,-2.4335,-2.4367,-2.435,-2.4409,-2.4546,-2.4356,-2.4357,-2.4392,-2.4701,-2.4736,-2.4763,-2.4522,-2.4526,-2.4529,-2.4698,0,-2.4017,-2.4155,-2.4134,-2.4269,-2.4331,-2.4279,-2.4349,-2.4377,-2.4379,-2.4433,-2.4435,-2.4498,-2.4437,-2.4455,-2.4512,-2.4518,-2.4608,-2.4505,-2.4586,-2.4589,-2.458,-2.4792,-2.483,-2.4988,-2.472,-2.4723,-2.4726,0,-2.4232,-2.4275,-2.4415,-2.4436,-2.4461,-2.4525,-2.4574,-2.4626,-2.4656,-2.4653,-2.4687,-2.4658,-2.4739,-2.466,-2.4772,-2.4702,-2.4733,-2.4741,-2.4747,-2.4755,-2.4667,-2.4807,-2.5038,-2.5063,-2.476,-2.4757,-2.4755,0,-2.4388,-2.448,-2.4576,-2.4595,-2.4622,-2.4668,-2.4681,-2.4707,-2.4741,-2.4784,-2.4806,-2.4858,-2.4887,-2.4928,-2.4915,-2.4858,-2.503,-2.4949,-2.503,-2.5031,-2.5071,-2.5069,-2.5312,-2.5089,-2.5088,-2.5088,-2.5087,0,-2.4579,-2.4668,-2.4646,-2.4705,-2.4802,-2.4776,-2.4873,-2.488,-2.4903,-2.4963,-2.492,-2.4978,-2.4955,-2.5011,-2.5001,-2.5095,-2.5109,-2.5109,-2.5106,-2.5114,-2.5114,-2.5136,-2.5125,-2.5094,-2.5093,-2.5092,-2.5091,0,-2.4771,-2.476,-2.4861,-2.4877,-2.4882,-2.4954,-2.4967,-2.5023,-2.502,-2.5096,-2.5113,-2.5109,-2.5173,-2.5162,-2.5233,-2.5226,-2.5344,-2.5326,-2.5334,-2.533,-2.5412,-2.5405,-2.5678,-2.5713,-2.5467,-2.5469,-2.5471,0,-2.4895,-2.4961,-2.4983,-2.5019,-2.5035,-2.5095,-2.5128,-2.5105,-2.5142,-2.518,-2.5231,-2.529,-2.5337,-2.5441,-2.5445,-2.5499,-2.5483,-2.5575,-2.5491,-2.5497,-2.5485,-2.5482,-2.5489,-2.5593,-2.5595,-2.5598,-2.5599,0,-2.5116,-2.5106,-2.5156,-2.5204,-2.5245,-2.5282,-2.5315,-2.5347,-2.5326,-2.537,-2.5434,-2.5469,-2.554,-2.56,-2.5649,-2.5664,-2.5629,-2.5625,-2.5647,-2.5657,-2.5659,-2.5659,-2.538,-2.562,-2.5618,-2.5616,-2.5615,-2.5614,-2.5278,-2.5334,-2.5357,-2.5414,-2.5435,-2.5467,-2.5519,-2.5521,-2.5573,-2.5628,-2.5611,-2.5683,-2.571,-2.5773,-2.5792,-2.5849,-2.5815,-2.5847,-2.5855,-2.5863,-2.5873,-2.5648,-2.5858,-2.5857,-2.5857,-2.5856,-2.5856,0,-2.5497,-2.5509,-2.5561,-2.5607,-2.5651,-2.5611,-2.5645,-2.5685,-2.5749,-2.5776,-2.5821,-2.5894,-2.595,-2.5958,-2.6012,-2.6056,-2.6041,-2.6071,-2.6068,-2.6072,-2.59,-2.5876,-2.6082,-2.6082,-2.6082,-2.6081,-2.6081,-2.6081,-2.5616,-2.5709,-2.5702,-2.5804,-2.5815,-2.5884,-2.5906,-2.5935,-2.5956,-2.6038,-2.6084,-2.6088,-2.6107,-2.6162,-2.6212,-2.6213,-2.6235,-2.6272,-2.6267,-2.6107,-2.6084,-2.6063,-2.604,-2.6276,-2.6277,-2.6433,-2.6435,-2.6436]},{"header":{"parameterUnit":"m.s-1","parameterCategory":1,"la1":30.2991,"la2":30.254,"lo1":-89.0895,"lo2":-89.0444,"dy":0.0017,"dx":0.0017,"nx":28,"ny":28,"refTime":"2023-04-25T21:00:00:Z","depth":0,"parameterNumber":3,"parameterNumberName":"V-component_of_WINDS"},"data":[0,0,0,0,0,0,0,0,0,0,0,0,0,0,0,0,0,0,0,0,0,0,0,0,0,0,0,0,0,0,0,0,0,0,0,0,0,0,0,0,0,0,0,0,0,0,0,0,0,0,0,0,0,0,0,0,0,0,0.3214,0.3214,0,0.3214,0.3214,0.3214,0.3169,0.3168,0.3167,0.3166,0.3171,0.3172,0.3173,0,0,0,0,0,0,0,0,0,0,0,0,0,0.3178,0.3179,0.3214,0.3214,0.3214,0.3214,0.3214,0.3214,0.3169,0.3168,0.3167,0.3165,0.317,0.3172,0.3173,0,0,0,0,0,0,0,0,0,0,0,0,0,0.3188,0.3179,0.3214,0.3191,0.3189,0.3214,0.3214,0.3214,0.317,0.3168,0.3166,0.3165,0.317,0.3172,0.3173,0.3221,0,0,0.3179,0.318,0,0,0,0,0,0,0,0,0.3187,0.3189,0.3195,0.3193,0.3191,0.319,0.3203,0.3216,0.317,0.3177,0.3166,0.3164,0.3179,0.318,0.3184,0.3221,0.3221,0.3179,0.318,0.3181,0.3182,0,0,0,0,0,0,0,0.3187,0.3189,0.3214,0.3195,0.3192,0.3183,0.3182,0.3206,0.3188,0.3177,0.3173,0.3174,0.3177,0.3182,0.3184,0.3221,0.3179,0.3181,0.3182,0.3183,0.3299,0.3301,0,0,0,0,0,0,0.3188,0.3189,0.3214,0.3214,0.3184,0.3185,0.3184,0.3192,0.3188,0.3185,0.3175,0.3172,0.318,0.3182,0.3184,0.324,0.3181,0.3183,0.3184,0.3297,0.3299,0.3301,0,0,0,0,0,0,0.3188,0.3191,0.3214,0.32,0.3202,0.3187,0.3196,0.3193,0.3198,0.3187,0.3184,0.3183,0.3179,0.3181,0.3212,0.3239,0.3184,0.3185,0.3294,0.3297,0.33,0.3352,0,0,0,0,0,0,0.3187,0.3191,0.3208,0.3201,0.3203,0.3241,0.3198,0.3194,0.32,0.3196,0.3193,0.3191,0.3177,0.3209,0.3214,0.3241,0.3187,0.3292,0.3296,0.3299,0.3348,0.3357,0.3364,0,0,0,0,0,0.3186,0.3223,0.3209,0.3212,0.3224,0.3243,0.3244,0.3226,0.3203,0.322,0.3214,0.3191,0.3235,0.3213,0.3217,0.3246,0.329,0.3295,0.3299,0.3344,0.3355,0.3364,0,0,0,0,0,0,0.3236,0.3222,0.3206,0.3242,0.3244,0.3235,0.3257,0.3237,0.3247,0.3242,0.322,0.322,0.3255,0.3253,0.3228,0.3292,0.3259,0.3264,0.3292,0.3302,0.331,0.331,0.3188,0,0,0,0,0,0.3251,0.3265,0.3253,0.3286,0.3288,0.3272,0.328,0.3265,0.3267,0.3268,0.3263,0.3266,0.3281,0.3291,0.3304,0.3347,0.3347,0.3369,0.3377,0.3383,0.3389,0.3413,0.3423,0.3316,0.3316,0.3316,0,0,0.3282,0.3277,0.3288,0.3296,0.3296,0.3313,0.3273,0.3293,0.3306,0.3271,0.33,0.3296,0.3299,0.3336,0.3353,0.3336,0.3418,0.3389,0.3394,0.3396,0.3419,0.3429,0.3438,0.3319,0.3318,0.3318,0,0,0.3349,0.3345,0.3373,0.3373,0.3372,0.3361,0.3368,0.3362,0.3358,0.3386,0.336,0.3376,0.3402,0.3405,0.3409,0.3477,0.3458,0.3482,0.3524,0.3548,0.3556,0.3564,0.3589,0.3599,0.3487,0.3487,0.3487,0,0.3389,0.3412,0.339,0.3412,0.3417,0.3384,0.3413,0.3414,0.3418,0.3424,0.3404,0.3435,0.3435,0.3473,0.3489,0.3494,0.3502,0.3483,0.3557,0.3564,0.3571,0.3595,0.3604,0.349,0.349,0.349,0.3489,0,0.3462,0.3479,0.3502,0.3505,0.3513,0.3538,0.3521,0.3531,0.3516,0.3508,0.3538,0.3535,0.3548,0.3555,0.3541,0.3592,0.3582,0.356,0.3527,0.3584,0.3607,0.3616,0.3495,0.3494,0.3493,0.3492,0,0,0.3561,0.3551,0.356,0.3562,0.3558,0.3572,0.3596,0.3606,0.3616,0.362,0.3641,0.3663,0.3643,0.3648,0.3634,0.3655,0.371,0.363,0.363,0.3647,0.3768,0.3786,0.3797,0.3697,0.3698,0.37,0.3768,0,0.3627,0.3666,0.3647,0.3689,0.3705,0.3674,0.3695,0.3697,0.369,0.3703,0.3696,0.3712,0.3683,0.3687,0.3706,0.37,0.3735,0.3694,0.3718,0.3719,0.372,0.3808,0.3827,0.3892,0.3777,0.3778,0.3779,0,0.3709,0.3715,0.3759,0.3753,0.3759,0.3778,0.3786,0.3799,0.38,0.3794,0.38,0.3781,0.3806,0.3772,0.3807,0.378,0.3788,0.3787,0.3789,0.3792,0.3754,0.3815,0.3912,0.3922,0.3793,0.3791,0.379,0,0.3779,0.3798,0.3827,0.3829,0.3822,0.3836,0.3835,0.3833,0.3841,0.3849,0.3854,0.3865,0.3871,0.3881,0.3866,0.3842,0.3904,0.3868,0.3901,0.3902,0.3917,0.3916,0.4018,0.392,0.392,0.3919,0.3919,0,0.3855,0.3884,0.3858,0.3876,0.3907,0.3885,0.3917,0.3912,0.3911,0.3929,0.3903,0.392,0.3899,0.3915,0.3904,0.3935,0.3938,0.3935,0.3932,0.3938,0.3939,0.3945,0.394,0.3922,0.3921,0.3921,0.392,0,0.3939,0.3923,0.3952,0.3943,0.3941,0.3965,0.3958,0.3975,0.3966,0.3988,0.3992,0.3979,0.3996,0.3982,0.3999,0.3991,0.4034,0.4023,0.4033,0.4031,0.4065,0.4063,0.4175,0.419,0.4081,0.4082,0.4083,0,0.399,0.4011,0.4003,0.4012,0.4012,0.4027,0.4034,0.4013,0.4022,0.4025,0.4042,0.4057,0.4067,0.4097,0.4089,0.4103,0.4094,0.4132,0.4096,0.4102,0.4096,0.4096,0.4099,0.414,0.4142,0.4143,0.4144,0,0.4082,0.4073,0.4083,0.4092,0.4101,0.4107,0.4111,0.412,0.4098,0.411,0.4127,0.4135,0.4152,0.4167,0.4178,0.4178,0.4158,0.4155,0.4163,0.4171,0.4176,0.4175,0.4055,0.4153,0.4152,0.4151,0.4151,0.415,0.4152,0.4169,0.4167,0.418,0.418,0.4184,0.42,0.4192,0.4205,0.4216,0.4203,0.4224,0.4225,0.4237,0.4239,0.4256,0.424,0.4253,0.4256,0.426,0.4265,0.4172,0.4258,0.4258,0.4257,0.4257,0.4257,0,0.4244,0.424,0.4253,0.4258,0.4269,0.4247,0.425,0.4261,0.4279,0.4281,0.4292,0.4312,0.4326,0.432,0.4333,0.4348,0.434,0.4353,0.4352,0.4353,0.4278,0.427,0.4359,0.4359,0.4359,0.4359,0.4359,0.4359,0.4293,0.4322,0.4313,0.4342,0.4338,0.4357,0.4361,0.4365,0.4367,0.4389,0.4401,0.4396,0.4395,0.4408,0.4421,0.4419,0.4426,0.4443,0.4438,0.4368,0.4358,0.4349,0.4341,0.4444,0.4444,0.4511,0.4512,0.4513]}]]